• Processing (Info)

  • MPEC 2005-F19 : 2005 EJ225

    The following Minor Planet Electronic Circular may be linked-to from your own Web pages, but must not otherwise be redistributed electronically.

    A form allowing access to any MPEC is at the bottom of this page.


    Read MPEC 2005-F18 Read MPEC 2005-F20


    M.P.E.C. 2005-F19                                Issued 2005 Mar. 17, 13:18 UT
    
         The Minor Planet Electronic Circulars contain information on unusual
             minor planets and routine data on comets.  They are published
       on behalf of Commission 20 of the International Astronomical Union by the
              Minor Planet Center, Smithsonian Astrophysical Observatory,
                              Cambridge, MA 02138, U.S.A.
    
                      Supported in part by the Brinson Foundation
                 Prepared using the Tamkin Foundation Computer Network
    
                                  MPC@CFA.HARVARD.EDU
              URL http://cfa-www.harvard.edu/iau/mpc.html  ISSN 1523-6714
    
                                      2005 EJ225
    
    Observations:
         K05EM5J* C2005 03 14.19076 08 28 44.64 +22 31 33.1          20.2 R EF019G96
         K05EM5J  C2005 03 14.19734 08 28 43.93 +22 31 31.9          20.1 R EF019G96
         K05EM5J  C2005 03 14.20391 08 28 43.21 +22 31 31.0          20.0 R EF019G96
         K05EM5J  C2005 03 14.21045 08 28 42.52 +22 31 29.6          19.8 R EF019G96
         K05EM5J  C2005 03 14.24394 08 28 38.96 +22 31 22.9          19.2 R EF019G96
         K05EM5J  C2005 03 14.25505 08 28 37.75 +22 31 21.4          19.2 R EF019G96
         K05EM5J  C2005 03 14.26615 08 28 36.60 +22 31 19.0          19.7 R EF019G96
         K05EM5J  C2005 03 14.27723 08 28 35.34 +22 31 16.7          19.5 R EF019G96
         K05EM5J  C2005 03 16.24590 08 25 20.88 +22 24 53.0          20.2 R EF019G96
         K05EM5J  C2005 03 16.25258 08 25 20.24 +22 24 51.2          20.2 R EF019G96
         K05EM5J  C2005 03 16.25925 08 25 19.54 +22 24 50.3          20.2 R EF019G96
         K05EM5J  C2005 03 16.26587 08 25 18.94 +22 24 48.5          20.2 R EF019G96
         K05EM5J  C2005 03 17.16762 08 23 54.90 +22 21 31.5          20.2 R EF019G96
         K05EM5J  C2005 03 17.17354 08 23 54.30 +22 21 30.0          19.8 R EF019G96
         K05EM5J  C2005 03 17.17950 08 23 53.76 +22 21 28.9          20.0 R EF019G96
         K05EM5J  C2005 03 17.18536 08 23 53.20 +22 21 27.4          20.1 R EF019G96
    
    Observer details:
    G96 Mt. Lemmon Survey.  Observers S. M. Larson, E. C. Beshore.  Measurers
        E. C. Beshore, C. M. Casey, E. J. Christensen, G. J. Garradd, R. E. Hill,
        S. M. Larson, R. H. McNaught.  1.5-m reflector + CCD.
    
    Orbital elements:
    2005 EJ225                                                           PHA 0.000
    Epoch 2005 Mar. 11.0 TT = JDT 2453440.5                 MPC
    M 307.08899              (2000.0)            P               Q
    n   0.44067060     Peri.  287.58874     +0.01815597     +0.99895878
    a   1.7102516      Node   343.28434     -0.85328297     -0.00633724
    e   0.5629339      Incl.    8.36714     -0.52113197     +0.04517960
    P   2.24           H   18.6           G   0.15
    From 16 observations 2005 Mar. 14-17.
    
    Ephemeris:
    2005 EJ225               a,e,i = 1.71, 0.56, 8                   q = 0.7475
    Date    TT    R. A. (2000) Decl.     Delta      r     Elong.  Phase     V
    2005 03 11    08 34.49   +22 39.5    0.767    1.627   134.7    25.7    20.3
    2005 03 21    08 18.50   +22 05.2    0.775    1.548   121.4    33.3    20.4
    2005 03 31    08 08.74   +21 07.8    0.790    1.466   109.5    40.0    20.5
    2005 04 10    08 05.08   +19 53.9    0.806    1.381    99.1    45.8    20.6
    2005 04 20    08 06.80   +18 26.5    0.816    1.294    90.0    50.9    20.6
    2005 04 30    08 12.90   +16 46.3    0.815    1.205    82.0    55.9    20.6
    2005 05 10    08 22.40   +14 51.7    0.801    1.115    75.0    61.0    20.5
    2005 05 20    08 34.38   +12 40.7    0.771    1.027    68.8    66.7    20.4
    2005 05 30    08 47.70   +10 12.0    0.723    0.943    63.2    73.6    20.3
    2005 06 09    09 01.00   +07 26.6    0.657    0.866    57.8    82.3    20.3
    2005 06 19    09 12.14   +04 30.6    0.574    0.804    52.2    93.5    20.2
    2005 06 29    09 17.53   +01 41.7    0.479    0.762    45.6   107.8    20.5
    2005 07 09    09 11.69   -00 22.8    0.381    0.747    36.8   125.5    21.2
    2005 07 19    08 46.83   -00 34.7    0.292    0.762    25.1   145.5    23.0
    2005 07 29    07 56.07   +02 41.4    0.227    0.803    18.5   156.4    24.8
    2005 08 08    06 43.31   +09 44.9    0.195    0.865    36.7   135.6    21.0
    2005 08 18    05 25.91   +17 43.3    0.194    0.941    63.4   106.0    18.8
    2005 08 28    04 16.48   +23 40.9    0.210    1.026    88.3    79.9    18.1
    2005 09 07    03 14.94   +26 56.1    0.238    1.114   110.6    57.8    17.8
    2005 09 17    02 20.18   +27 39.0    0.275    1.203   130.9    39.1    17.8
    2005 09 27    01 34.58   +26 23.8    0.327    1.292   148.6    23.9    17.8
    2005 10 07    01 00.45   +24 03.8    0.395    1.380   161.2    13.5    18.1
    2005 10 17    00 37.90   +21 31.9    0.483    1.465   162.8    11.6    18.6
    2005 10 27    00 25.03   +19 20.1    0.588    1.547   155.0    15.7    19.3
    2005 11 06    00 19.56   +17 39.8    0.710    1.626   145.3    20.3    19.9
    2005 11 16    00 19.57   +16 32.7    0.847    1.702   135.9    23.9    20.5
    2005 11 26    00 23.55   +15 54.8    0.996    1.775   127.0    26.4    21.0
    2005 12 06    00 30.44   +15 41.4    1.156    1.844   118.7    27.9    21.5
    2005 12 16    00 39.52   +15 47.9    1.324    1.911   110.9    28.8    21.9
    2005 12 26    00 50.22   +16 10.0    1.498    1.974   103.4    29.0    22.2
    
    Timothy B. Spahr             (C) Copyright 2005 MPC           M.P.E.C. 2005-F19
    

    Read MPEC 2005-F18 Read MPEC 2005-F20


    MPEC number:

    Enter an MPEC number in one of the following forms:

    • 1997-B01 (the full form)
    • J97B01 (the packed version of the full form)
    • B01 (the abbreviated form)